Volver al catálogo

COSMOS 1176 COOLANT

ActivoLEO
NORAD 29019·DEBRIS·🇷🇺 Russia

Lanzado Apr 29, 1980 desde Baikonur Cosmodrome

Loading…

Próximos Pases (próximas 24 horas)

TLE

ActualizadoSource: Space-Track

Época: Sep 14, 2026, 04:05 UTC

1 29019U 80034F   26257.17038665  .00000401  00000-0  30360-3 0  9994
2 29019  64.8254 162.9662 0050865 234.4031 125.2294 14.05081238636366

Sigue COSMOS 1176 COOLANT en tiempo real con AllMySat

Download on the App Store